Location: Courçay
(47.2523°N, 0.8761°E)
Time: 06:24:31
(UTC+00:00)

Okean 2 Rocket - Pass Details

Date: 18 November 2025
Orbit: 610 x 635 km, 82.5° (Epoch: 06 December)

Event Time Altitude Azimuth Distance (km) Brightness Sun altitude
Rises 17:11:02 0° 149° (SSE) 2,885 6.4 -9.1°
Reaches altitude 10° 17:13:45 10° 131° (SE) 1,980 5.4 -9.5°
Maximum altitude 17:16:52 19° 86° (E) 1,466 4.4 -10.1°
Drops below altitude 10° 17:19:59 10° 41° (NE) 1,983 5.1 -10.6°
Enters shadow 17:20:01 10° 40° (NE) 1,992 5.2 -10.6°
